Regional Weather Roundup
Issued by NWS

Home | Current Version | Previous Version | Graphics & Text | Print | Product List | Glossary On
Versions: 1 2 3 4 5 6 7 8 9 10 11 12 13 14 15 16 17 18 19 20 21 22 23 24 25 26 27 28 29 30 31 32 33 34 35 36 37 38 39 40 41 42 43 44 45 46 47 48 49 50
169
ASUS43 KOAX 090210
RWRNE

WEATHER ROUNDUP FOR NEBRASKA
NATIONAL WEATHER SERVICE OMAHA NE
800 PM CST MON FEB 08 2016

NOTES: SATELLITE DATA IS BEING USED TO AUGMENT CLOUD COVER ABOVE
       12000 FEET.
       "FAIR" INDICATES FEW OR NO CLOUDS BELOW 12,000 FEET WITH NO
       SIGNIFICANT WEATHER AND/OR OBSTRUCTIONS TO VISIBILITY.

  * THESE STATIONS DO NOT REPORT WEATHER SUCH AS RAIN...SNOW OR FOG.

NEZ001>004-019>022-054>056-090300-
NEBRASKA PANHANDLE

CITY           SKY/WX    TMP DP  RH WIND       PRES   REMARKS
SCOTTSBLUFF    MOCLDY    38  29  70 NW12      30.29F WCI  30
ALLIANCE       CLOUDY    29  25  85 W7        30.25R WCI  22
CHADRON        CLOUDY    33  23  66 CALM      30.27R
KIMBALL        CLOUDY    35  28  78 NW9       30.29F WCI  27
SIDNEY         CLEAR     37  28  70 NW15      30.26F WCI  28
$$

NEZ057>060-069>072-079>082-090300-
SOUTHWEST NEBRASKA

CITY           SKY/WX    TMP DP  RH WIND       PRES   REMARKS
NORTH PLATTE   CLOUDY    32  20  61 W10       30.22F WCI  24
IMPERIAL       CLOUDY    30  19  63 NW9       30.25F WCI  22
LEXINGTON      PTCLDY    24  16  70 W10       30.21F WCI  14
MCCOOK         CLOUDY    31  20  63 W12       30.25S WCI  22
OGALLALA       CLOUDY    26  17  69 W3        30.25S
$$

NEZ005>010-023>029-035>040-094-090300-
NORTH CENTRAL NEBRASKA

CITY           SKY/WX    TMP DP  RH WIND       PRES   REMARKS
VALENTINE      MOCLDY    28  17  63 W6        30.21F WCI  22
AINSWORTH      PTCLDY    31  17  57 NW13      30.19S WCI  21
BROKEN BOW     CLEAR     30  15  53 NW14      30.17F WCI  19
O`NEILL        PTCLDY    31  20  63 NW14      30.17S WCI  21
ORD            PTCLDY    28  17  63 NW10      30.17S WCI  19
THEDFORD       PTCLDY    32  17  55 NW9       30.21S WCI  24
$$

NEZ041-046>049-061>064-073>077-083>087-090300-
SOUTH CENTRAL NEBRASKA

CITY           SKY/WX    TMP DP  RH WIND       PRES   REMARKS
GRAND ISLAND   CLOUDY    27  17  66 NW8       30.18R WCI  19
AURORA         CLOUDY    29  19  66 NW14      30.17S WCI  19
HASTINGS       CLEAR     26  17  68 NW8       30.18R WCI  18
HEBRON         PTCLDY    31  22  68 NW8       30.18R WCI  24
HOLDREGE       CLEAR     29  16  58 W9        30.21S WCI  20
YORK           PTCLDY    32  21  64 NW18      30.15S WCI  20
$$

NEZ011>018-030>034-042>045-090300-
NORTHEAST NEBRASKA

CITY           SKY/WX    TMP DP  RH WIND       PRES   REMARKS
NORFOLK        CLOUDY    33  20  58 NW23      30.10F WCI  21
ALBION         CLOUDY    31  19  62 NW24G30   30.13S WCI  17
BLAIR          CLOUDY    26  19  73 NW7       30.08S WCI  19
COLUMBUS *     CLOUDY    30  16  55 NW15      30.12F WCI  19
FREMONT        CLOUDY    30  19  64 NW13G20   30.11S WCI  20
TEKAMAH        CLOUDY    29  18  63 N14       30.09F WCI  18
WAYNE          PTCLDY    28  20  72 NW14      30.11S WCI  17
$$

NEZ050>053-065>068-078-088>093-090300-
SOUTHEAST NEBRASKA

CITY           SKY/WX    TMP DP  RH WIND       PRES   REMARKS
LINCOLN        CLOUDY    32  21  64 NW13      30.14R WCI  22
OMAHA EPPLEY   CLOUDY    25  18  74 N8        30.10S WCI  16
BEATRICE       CLOUDY    32  23  71 NW13      30.14R WCI  22
FALLS CITY     PTCLDY    28  19  69 NW9       30.11S WCI  19
NEBRASKA CITY  CLOUDY    28  20  72 N13       30.10S WCI  17
PLATTSMOUTH    MOCLDY    28  19  71 NW13      30.09S WCI  17
$$

NEZ044-045-051>053-067-090300-
OMAHA AREA

CITY           SKY/WX    TMP DP  RH WIND       PRES   REMARKS
OMAHA EPPLEY   CLOUDY    25  18  74 N8        30.10S WCI  16
BLAIR          CLOUDY    26  19  73 NW7       30.08S WCI  19
FREMONT        CLOUDY    30  19  64 NW13G20   30.11S WCI  20
MILLARD        CLOUDY    30  19  65 NW13      30.10S WCI  20
OFFUTT AFB     CLEAR     28  18  65 NW12      30.09S WCI  18
PLATTSMOUTH    MOCLDY    28  19  71 NW13      30.09S WCI  17
WAHOO          FAIR      31  22  68 NW13      30.11S WCI  21
$$




USA.gov is the U.S. government's official web portal to all federal, state and local government web resources and services.